[[{"header":{"parameterUnit":"m.s-1","parameterCategory":2,"la1":30.2991,"la2":30.254,"lo1":-89.0895,"lo2":-89.0444,"dy":0.0017,"dx":0.0017,"nx":28,"ny":28,"refTime":"2024-02-20T03:00:00:Z","depth":"0","parameterNumber":2,"parameterNumberName":"U-component_of_CURRENTS"},"data":[0,0,0,0,0,0,0,0,0,0,0,0,0,0,0,0,0,0,0,0,0,0,0,0,0,0,0,0,0,0,0,0,0,0,0,0,0,0,0,0,0,0,0,0,0,0,0,0,0,0,0,0,0,0,0,0,0,0,0.2365,0.2365,0,0.241,0.2411,0.2411,0.2423,0.2423,0.2423,0.2423,0.2439,0.2439,0.244,0,0,0,0,0,0,0,0,0,0,0,0,0,0.2292,0.2293,0.2364,0.2365,0.2366,0.241,0.2411,0.2411,0.2423,0.2423,0.2423,0.2423,0.2439,0.2439,0.244,0,0,0,0,0,0,0,0,0,0,0,0,0,0.2327,0.2293,0.2364,0.2379,0.2381,0.241,0.2411,0.2411,0.2423,0.2423,0.2423,0.2423,0.2438,0.2439,0.244,0.2447,0,0,0.2442,0.2442,0,0,0,0,0,0,0,0,0.2325,0.2329,0.2376,0.2378,0.238,0.2413,0.2391,0.2422,0.2423,0.2405,0.2423,0.2423,0.2429,0.243,0.2437,0.2448,0.2448,0.2442,0.2443,0.2443,0.2443,0,0,0,0,0,0,0,0.2323,0.2328,0.238,0.2377,0.2379,0.2385,0.2389,0.2397,0.2415,0.2406,0.2408,0.2416,0.2429,0.2436,0.2437,0.2449,0.2442,0.2443,0.2443,0.2444,0.2505,0.2506,0,0,0,0,0,0,0.2322,0.2325,0.2379,0.2382,0.2354,0.2386,0.2391,0.2401,0.2415,0.2418,0.2416,0.2417,0.2435,0.2436,0.2437,0.2484,0.2443,0.2444,0.2444,0.2504,0.2505,0.2506,0,0,0,0,0,0,0.232,0.2326,0.2377,0.2356,0.2363,0.2388,0.2398,0.2402,0.2413,0.2424,0.2426,0.2425,0.2435,0.2436,0.2455,0.2483,0.2444,0.2445,0.2502,0.2504,0.2506,0.2553,0,0,0,0,0,0,0.2317,0.2325,0.2331,0.2356,0.2365,0.2403,0.2399,0.2403,0.2419,0.242,0.2431,0.2433,0.2435,0.2454,0.2456,0.2483,0.2445,0.2501,0.2503,0.2505,0.255,0.2556,0.2561,0,0,0,0,0,0.2315,0.2324,0.2331,0.2338,0.2373,0.2404,0.2409,0.2424,0.242,0.2431,0.2439,0.2433,0.247,0.2456,0.2458,0.2486,0.25,0.2502,0.2505,0.2547,0.2555,0.2561,0,0,0,0,0,0,0.2293,0.2328,0.2335,0.2354,0.2381,0.2407,0.2418,0.2426,0.2442,0.2441,0.2444,0.2446,0.2478,0.2472,0.2456,0.251,0.2485,0.2488,0.2517,0.2524,0.2529,0.254,0.2446,0,0,0,0,0,0.2292,0.2309,0.2343,0.2357,0.2372,0.2395,0.2408,0.2422,0.2439,0.2446,0.2454,0.2466,0.249,0.2497,0.2513,0.2536,0.2549,0.2556,0.2562,0.2567,0.2578,0.2624,0.2635,0.2515,0.2515,0.2515,0,0,0.2286,0.2308,0.2316,0.2354,0.2373,0.2403,0.2402,0.2429,0.2454,0.2445,0.2474,0.2487,0.2501,0.2535,0.2548,0.2533,0.2609,0.257,0.2575,0.2583,0.2628,0.264,0.265,0.2517,0.2516,0.2516,0,0,0.2285,0.2304,0.2321,0.2349,0.2387,0.2407,0.2416,0.2448,0.2465,0.2495,0.2503,0.2532,0.2552,0.2578,0.2592,0.2636,0.2641,0.264,0.2676,0.2721,0.2731,0.274,0.2775,0.2787,0.264,0.264,0.264,0,0.2275,0.2306,0.233,0.2359,0.2386,0.241,0.2441,0.2464,0.2497,0.2521,0.2509,0.2571,0.2578,0.2637,0.2656,0.2651,0.2673,0.2648,0.2729,0.2738,0.2747,0.2781,0.2794,0.2642,0.2642,0.2642,0.2642,0,0.2295,0.2322,0.2336,0.2382,0.2413,0.2443,0.2486,0.2514,0.2532,0.2559,0.2616,0.2633,0.2671,0.2682,0.2683,0.2754,0.275,0.2734,0.2712,0.2762,0.2794,0.2807,0.2646,0.2645,0.2644,0.2644,0,0,0.2265,0.2336,0.234,0.2371,0.2432,0.2459,0.2508,0.2567,0.261,0.2637,0.2695,0.2736,0.2748,0.2765,0.2775,0.2813,0.2891,0.2803,0.2804,0.2838,0.2993,0.3001,0.3014,0.2893,0.2895,0.2897,0.2991,0,0.2275,0.2329,0.2365,0.242,0.2457,0.2504,0.2547,0.2602,0.2653,0.2713,0.2747,0.2801,0.2779,0.2807,0.2844,0.2887,0.2926,0.2867,0.2938,0.294,0.2942,0.303,0.2986,0.3068,0.3003,0.3005,0.3007,0,0.2284,0.2325,0.2378,0.2453,0.2473,0.2505,0.2596,0.2642,0.2733,0.2778,0.2839,0.2866,0.2937,0.2904,0.2997,0.2963,0.2985,0.3007,0.301,0.3011,0.2972,0.3007,0.3093,0.3043,0.3025,0.3024,0.3023,0,0.2261,0.2334,0.2377,0.2404,0.2489,0.252,0.2565,0.2656,0.2719,0.2826,0.2881,0.2955,0.3005,0.3046,0.3086,0.3052,0.3189,0.314,0.3166,0.3166,0.314,0.3134,0.3187,0.3209,0.3209,0.3209,0.3209,0,0.2265,0.2299,0.2367,0.2394,0.2448,0.2509,0.2584,0.2649,0.2759,0.2833,0.2906,0.298,0.3046,0.312,0.3134,0.3207,0.3227,0.3203,0.3206,0.3155,0.3149,0.3111,0.3066,0.3212,0.3212,0.3211,0.321,0,0.2241,0.2282,0.2337,0.2417,0.244,0.2479,0.2588,0.2647,0.2753,0.2856,0.2891,0.303,0.3132,0.3194,0.3285,0.3278,0.3265,0.3347,0.3284,0.3278,0.3232,0.3191,0.3103,0.301,0.3392,0.3393,0.3393,0,0.2238,0.2262,0.234,0.2365,0.24,0.2468,0.2511,0.2631,0.2703,0.2874,0.2918,0.3065,0.3161,0.3322,0.3368,0.3432,0.3307,0.3402,0.3324,0.3259,0.3214,0.3042,0.2955,0.3306,0.3306,0.3306,0.3306,0,0.2235,0.2256,0.23,0.2346,0.2388,0.2446,0.2519,0.2578,0.2709,0.2796,0.2931,0.3028,0.3223,0.3306,0.3415,0.3433,0.3268,0.3404,0.3358,0.3186,0.298,0.2882,0.3205,0.3306,0.3306,0.3306,0.3306,0.3306,0.2226,0.2245,0.2287,0.2326,0.2367,0.2404,0.2418,0.2505,0.2592,0.2694,0.2854,0.297,0.3195,0.3365,0.336,0.3373,0.3276,0.3308,0.3275,0.3115,0.2987,0.3315,0.3401,0.3402,0.3402,0.3403,0.3403,0,0.2202,0.2223,0.2263,0.2293,0.2301,0.2344,0.2401,0.2393,0.2431,0.2599,0.2703,0.294,0.3074,0.3216,0.3355,0.3283,0.3085,0.3198,0.2955,0.2883,0.3226,0.3188,0.3205,0.3205,0.3205,0.3205,0.3205,0.3205,0.2194,0.2204,0.2221,0.2212,0.2226,0.2195,0.22,0.2194,0.2284,0.2393,0.2534,0.2692,0.3035,0.3272,0.329,0.3208,0.2947,0.2841,0.2765,0.3049,0.3055,0.3061,0.3017,0.2998,0.2998,0.2325,0.2321,0.2317]},{"header":{"parameterUnit":"m.s-1","parameterCategory":2,"la1":30.2991,"la2":30.254,"lo1":-89.0895,"lo2":-89.0444,"dy":0.0017,"dx":0.0017,"nx":28,"ny":28,"refTime":"2024-02-20T03:00:00:Z","depth":"0","parameterNumber":3,"parameterNumberName":"V-component_of_CURRENTS"},"data":[0,0,0,0,0,0,0,0,0,0,0,0,0,0,0,0,0,0,0,0,0,0,0,0,0,0,0,0,0,0,0,0,0,0,0,0,0,0,0,0,0,0,0,0,0,0,0,0,0,0,0,0,0,0,0,0,0,0,0.0025,0.0024,0,-0.0035,-0.0035,-0.0036,-0.0085,-0.0086,-0.0086,-0.0087,-0.019,-0.0193,-0.0195,0,0,0,0,0,0,0,0,0,0,0,0,0,0.0061,0.006,0.0025,0.0024,0.0023,-0.0034,-0.0035,-0.0036,-0.0085,-0.0086,-0.0087,-0.0087,-0.019,-0.0192,-0.0195,0,0,0,0,0,0,0,0,0,0,0,0,0,0.0027,0.006,0.0025,-0.0008,-0.0012,-0.0034,-0.0035,-0.0036,-0.0085,-0.0086,-0.0087,-0.0087,-0.0189,-0.0192,-0.0195,-0.0201,0,0,-0.0206,-0.0207,0,0,0,0,0,0,0,0,0.0029,0.0026,-0.0002,-0.0006,-0.001,-0.0053,-0.0061,-0.0094,-0.0085,-0.0058,-0.0087,-0.0088,-0.0148,-0.0155,-0.0164,-0.0206,-0.0211,-0.0206,-0.0208,-0.021,-0.0211,0,0,0,0,0,0,0,0.0032,0.0028,0.0001,-0.0003,-0.0008,-0.0032,-0.0037,-0.0067,-0.0099,-0.006,-0.0064,-0.007,-0.015,-0.016,-0.0167,-0.0212,-0.0206,-0.0209,-0.0211,-0.0213,-0.0279,-0.0279,0,0,0,0,0,0,0.0042,0.0031,0.0003,-0.0001,0.0009,-0.0032,-0.0037,-0.0039,-0.0098,-0.0107,-0.0069,-0.0072,-0.0154,-0.0163,-0.0171,-0.0182,-0.021,-0.0213,-0.0215,-0.028,-0.0279,-0.0279,0,0,0,0,0,0,0.0044,0.0041,0.0005,0.0013,0.0007,-0.0031,-0.0032,-0.0039,-0.0052,-0.0104,-0.0114,-0.0074,-0.0155,-0.0166,-0.0198,-0.0187,-0.0214,-0.0218,-0.028,-0.028,-0.0279,-0.0205,0,0,0,0,0,0,0.0045,0.0042,0.0044,0.0014,0.0007,-0.0002,-0.0032,-0.004,-0.0054,-0.0058,-0.0111,-0.0122,-0.0157,-0.0192,-0.0201,-0.0192,-0.022,-0.028,-0.028,-0.0279,-0.0208,-0.0202,-0.0198,0,0,0,0,0,0.0047,0.0059,0.0044,0.0041,0.0012,-0.0001,-0.0007,-0.0037,-0.0053,-0.0052,-0.0092,-0.012,-0.0195,-0.0195,-0.0205,-0.0197,-0.0281,-0.028,-0.0279,-0.021,-0.0204,-0.0198,0,0,0,0,0,0,0.0078,0.0054,0.0038,0.0042,0.0023,-0.0009,-0.001,-0.0032,-0.0061,-0.0066,-0.0118,-0.0131,-0.0153,-0.0186,-0.0184,-0.0215,-0.0242,-0.0243,-0.0186,-0.018,-0.0175,-0.0152,-0.0223,0,0,0,0,0,0.0086,0.0087,0.0059,0.0063,0.0057,0.0024,0.0014,-0.0005,-0.0035,-0.0048,-0.0087,-0.0128,-0.0157,-0.0177,-0.0209,-0.0227,-0.0255,-0.0229,-0.0224,-0.0219,-0.0208,-0.0248,-0.0245,-0.0277,-0.0277,-0.0277,0,0,0.0098,0.0086,0.0086,0.0069,0.0052,0.0055,0.0016,0.001,0.001,-0.0055,-0.0069,-0.011,-0.0158,-0.0176,-0.019,-0.0204,-0.0223,-0.0218,-0.0213,-0.0205,-0.0247,-0.0243,-0.0241,-0.0277,-0.0277,-0.0277,0,0,0.0131,0.0115,0.0128,0.0118,0.0099,0.008,0.0081,0.0051,0.0035,0.0017,-0.0029,-0.0065,-0.011,-0.0145,-0.0167,-0.0153,-0.0192,-0.0161,-0.0119,-0.0157,-0.0154,-0.0152,-0.0173,-0.0174,-0.016,-0.016,-0.016,0,0.0145,0.0159,0.013,0.0142,0.0142,0.0097,0.0116,0.0095,0.0056,0.0048,0.0022,-0.0045,-0.0094,-0.0115,-0.0113,-0.014,-0.016,-0.0137,-0.0149,-0.0148,-0.0147,-0.0169,-0.0171,-0.0157,-0.0157,-0.0157,-0.0158,0,0.0187,0.0197,0.0207,0.0207,0.0203,0.0212,0.0184,0.0172,0.0146,0.0121,0.0093,0.0026,-0.0014,-0.0037,-0.0072,-0.0088,-0.0102,-0.0135,-0.0161,-0.0139,-0.0164,-0.0167,-0.0151,-0.0153,-0.0154,-0.0155,0,0,0.0222,0.0235,0.0238,0.0256,0.0241,0.0247,0.0247,0.0239,0.0248,0.0193,0.0196,0.0126,0.0087,0.0059,0.0005,-0.0035,-0.0055,-0.0075,-0.0079,-0.0087,-0.0121,-0.0128,-0.0133,-0.0087,-0.0087,-0.0087,-0.0136,0,0.0264,0.0308,0.0299,0.0342,0.0365,0.0333,0.0337,0.0321,0.0302,0.0291,0.0216,0.0196,0.0126,0.011,0.0059,-0.0025,-0.006,-0.0037,-0.0148,-0.0151,-0.0154,-0.0136,-0.012,-0.0162,-0.0139,-0.014,-0.014,0,0.0306,0.0334,0.0385,0.0417,0.0423,0.0435,0.0449,0.045,0.0418,0.0405,0.0367,0.031,0.0245,0.0181,0.0054,0.0076,-0.001,-0.0081,-0.0085,-0.0118,-0.0164,-0.0184,-0.0169,-0.0348,-0.0146,-0.0145,-0.0145,0,0.0351,0.0396,0.0443,0.0453,0.0473,0.0488,0.0494,0.0481,0.0508,0.0481,0.0496,0.0403,0.0367,0.0243,0.0094,0.0076,-0.0041,-0.009,-0.0174,-0.0176,-0.0197,-0.02,-0.0361,-0.0173,-0.0172,-0.0172,-0.0172,0,0.04,0.0439,0.0469,0.0495,0.0553,0.0543,0.06,0.0592,0.0607,0.0652,0.0559,0.0577,0.0381,0.0287,0.0137,-0.0017,-0.0011,-0.0156,-0.0188,-0.017,-0.017,-0.0355,-0.0445,-0.0174,-0.0174,-0.0173,-0.0173,0,0.0443,0.0458,0.0521,0.0559,0.0576,0.0617,0.0683,0.0729,0.0725,0.0784,0.0782,0.0711,0.0589,0.0396,0.0199,0.0054,-0.0198,-0.016,-0.0116,-0.0142,-0.0394,-0.0478,-0.066,-0.0729,-0.0263,-0.0264,-0.0264,0,0.0469,0.0504,0.0574,0.062,0.0642,0.0706,0.0754,0.0783,0.0855,0.0876,0.0919,0.0821,0.0784,0.0499,0.0217,-0.0037,-0.0205,-0.0191,-0.0234,-0.0398,-0.0516,-0.0588,-0.0638,-0.0233,-0.0233,-0.0233,-0.0233,0,0.0526,0.0545,0.0601,0.0693,0.0759,0.0851,0.093,0.1009,0.1049,0.11,0.1154,0.1124,0.0846,0.06,0.0241,0.0052,-0.0308,-0.02,-0.0391,-0.0517,-0.0585,-0.0668,-0.0204,-0.0233,-0.0233,-0.0233,-0.0233,-0.0233,0.0568,0.0619,0.0689,0.078,0.0866,0.0989,0.1082,0.1178,0.1297,0.1392,0.1348,0.135,0.0966,0.0482,0.0189,-0.0327,-0.0333,-0.0481,-0.057,-0.0629,-0.0698,-0.0222,-0.0278,-0.0279,-0.0279,-0.0279,-0.0279,0,0.0626,0.0683,0.0773,0.0892,0.1005,0.1036,0.1199,0.1301,0.145,0.1542,0.159,0.1439,0.0961,0.0466,-0.0234,-0.0621,-0.0763,-0.0833,-0.0948,-0.0981,-0.0579,-0.0581,-0.0679,-0.0679,-0.0679,-0.0679,-0.0678,-0.0678,0.066,0.0753,0.0801,0.0991,0.1082,0.1248,0.1352,0.1486,0.1601,0.1737,0.1776,0.1772,0.1416,0.0105,-0.0796,-0.1008,-0.1262,-0.1325,-0.1458,-0.1207,-0.1182,-0.1158,-0.1184,-0.1407,-0.1408,-0.1815,-0.1819,-0.1822]}],[{"header":{"parameterUnit":"m.s-1","parameterCategory":2,"la1":30.2991,"la2":30.254,"lo1":-89.0895,"lo2":-89.0444,"dy":0.0017,"dx":0.0017,"nx":28,"ny":28,"refTime":"2024-02-20T03:00:00:Z","depth":"2","parameterNumber":2,"parameterNumberName":"U-component_of_CURRENTS"},"data":[0,0,0,0,0,0,0,0,0,0,0,0,0,0,0,0,0,0,0,0,0,0,0,0,0,0,0,0,0,0,0,0,0,0,0,0,0,0,0,0,0,0,0,0,0,0,0,0,0,0,0,0,0,0,0,0,0,0,0.198,0.198,0,0.2024,0.2024,0.2025,0.2044,0.2044,0.2044,0.2044,0.2068,0.2068,0.2069,0,0,0,0,0,0,0,0,0,0,0,0,0,0.1907,0.1908,0.198,0.198,0.1981,0.2024,0.2024,0.2025,0.2044,0.2044,0.2044,0.2044,0.2068,0.2068,0.2069,0,0,0,0,0,0,0,0,0,0,0,0,0,0.1942,0.1909,0.1979,0.1997,0.2,0.2024,0.2025,0.2025,0.2044,0.2044,0.2044,0.2044,0.2068,0.2068,0.2069,0.207,0,0,0.2071,0.2072,0,0,0,0,0,0,0,0,0.194,0.1944,0.1994,0.1996,0.1999,0.2031,0.2008,0.204,0.2044,0.2025,0.2044,0.2044,0.2055,0.2057,0.2062,0.2071,0.2072,0.2072,0.2072,0.2072,0.2073,0,0,0,0,0,0,0,0.1937,0.1942,0.1995,0.1995,0.1998,0.2002,0.2007,0.2014,0.2036,0.2026,0.2028,0.2037,0.2056,0.2061,0.2062,0.2072,0.2071,0.2072,0.2073,0.2073,0.2134,0.2135,0,0,0,0,0,0,0.1937,0.194,0.1993,0.1996,0.1972,0.2003,0.2009,0.2018,0.2036,0.204,0.2037,0.2038,0.2059,0.2061,0.2063,0.2114,0.2072,0.2073,0.2073,0.2132,0.2134,0.2135,0,0,0,0,0,0,0.1935,0.1941,0.1992,0.1971,0.1978,0.2005,0.2015,0.2019,0.2035,0.2045,0.2048,0.205,0.206,0.2062,0.2084,0.2113,0.2073,0.2074,0.2131,0.2133,0.2134,0.2184,0,0,0,0,0,0,0.1933,0.194,0.1949,0.1971,0.1979,0.2017,0.2015,0.202,0.2041,0.2043,0.2057,0.2059,0.206,0.2083,0.2085,0.2113,0.2075,0.213,0.2132,0.2134,0.2181,0.2187,0.2193,0,0,0,0,0,0.193,0.1941,0.1949,0.1956,0.199,0.2018,0.2023,0.2041,0.2041,0.2054,0.2065,0.2059,0.2098,0.2085,0.2087,0.2116,0.2129,0.2131,0.2134,0.2178,0.2186,0.2192,0,0,0,0,0,0,0.1912,0.1945,0.1954,0.1974,0.2,0.2023,0.2037,0.2046,0.2064,0.2067,0.207,0.2073,0.2107,0.2101,0.2086,0.214,0.2114,0.2117,0.2147,0.2154,0.216,0.2168,0.2075,0,0,0,0,0,0.1913,0.193,0.1962,0.1978,0.1993,0.2016,0.203,0.2044,0.2062,0.2071,0.2081,0.2095,0.2117,0.2127,0.2141,0.2165,0.2175,0.2186,0.2192,0.2197,0.2205,0.2246,0.2257,0.2144,0.2144,0.2144,0,0,0.1909,0.193,0.1939,0.1976,0.1996,0.2022,0.2024,0.2052,0.2076,0.207,0.2102,0.2116,0.2128,0.2162,0.2176,0.2162,0.2236,0.22,0.2205,0.221,0.225,0.2261,0.2271,0.2145,0.2145,0.2145,0,0,0.191,0.1932,0.1948,0.1975,0.2013,0.2031,0.2042,0.2074,0.2092,0.2123,0.2132,0.2162,0.2184,0.2206,0.2218,0.2263,0.2267,0.2269,0.2304,0.2345,0.2354,0.2363,0.2395,0.2406,0.2271,0.2271,0.2271,0,0.1903,0.1932,0.1957,0.1984,0.201,0.2037,0.2064,0.2088,0.2122,0.2146,0.214,0.22,0.2207,0.2261,0.2281,0.2277,0.2299,0.2276,0.2353,0.2362,0.237,0.24,0.2412,0.2273,0.2273,0.2273,0.2273,0,0.1921,0.1948,0.1962,0.2006,0.2035,0.2065,0.2105,0.2136,0.2158,0.2184,0.2242,0.2259,0.2297,0.2308,0.2309,0.2376,0.2372,0.2357,0.2335,0.2384,0.2413,0.2425,0.2277,0.2276,0.2276,0.2275,0,0,0.1896,0.196,0.1966,0.1994,0.2053,0.2078,0.2127,0.2182,0.2223,0.2256,0.2313,0.2352,0.2369,0.2384,0.2395,0.243,0.2505,0.2423,0.2424,0.2455,0.2599,0.2591,0.2602,0.2508,0.251,0.2512,0.2598,0,0.1903,0.195,0.1985,0.2036,0.2068,0.2117,0.2159,0.2213,0.2262,0.2323,0.2359,0.2413,0.2396,0.2428,0.2461,0.25,0.2536,0.2483,0.2546,0.2548,0.2535,0.2615,0.2436,0.2497,0.2609,0.261,0.2612,0,0.1909,0.1944,0.1991,0.2061,0.208,0.2114,0.22,0.2244,0.2333,0.2378,0.2441,0.2473,0.2543,0.2516,0.2602,0.2573,0.2593,0.2611,0.2614,0.2598,0.2561,0.2466,0.2513,0.263,0.2629,0.2628,0.2626,0,0.1881,0.1949,0.1986,0.2011,0.2091,0.2125,0.217,0.2257,0.2318,0.2422,0.2482,0.2553,0.2608,0.2645,0.2685,0.2655,0.2777,0.2733,0.2742,0.2741,0.2596,0.2579,0.2794,0.2794,0.2794,0.2793,0.2793,0,0.1878,0.1908,0.1975,0.1997,0.2049,0.2111,0.2181,0.2245,0.2355,0.2428,0.2505,0.2579,0.2647,0.2719,0.2729,0.2787,0.2813,0.2774,0.2775,0.2608,0.2592,0.2705,0.2693,0.2797,0.2796,0.2795,0.2795,0,0.1846,0.1886,0.1932,0.2011,0.2036,0.2073,0.2185,0.224,0.235,0.2453,0.2494,0.2633,0.2727,0.2787,0.2867,0.2852,0.2895,0.2902,0.2705,0.2683,0.2817,0.2807,0.2922,0.2923,0.2923,0.2924,0.2924,0,0.1834,0.1853,0.1929,0.1952,0.1988,0.2054,0.2099,0.2221,0.2292,0.247,0.2518,0.2664,0.2746,0.2882,0.2901,0.2946,0.2945,0.2784,0.2691,0.2847,0.2836,0.2825,0.2814,0.2513,0.251,0.2508,0.2506,0,0.1815,0.1839,0.1878,0.1923,0.1965,0.2018,0.2097,0.2152,0.229,0.2387,0.2516,0.2604,0.2764,0.2756,0.2842,0.2824,0.2764,0.2738,0.2966,0.2516,0.247,0.2457,0.2458,0.2484,0.2486,0.2488,0.2489,0.249,0.1799,0.1813,0.1857,0.1892,0.1936,0.1965,0.1975,0.2074,0.2164,0.228,0.2414,0.2491,0.258,0.2636,0.2585,0.2556,0.2724,0.2593,0.2596,0.2603,0.2549,0.2507,0.2517,0.2519,0.2521,0.2523,0.2524,0,0.1771,0.1793,0.1823,0.185,0.1857,0.1908,0.196,0.1954,0.2006,0.2163,0.2259,0.2162,0.222,0.2292,0.2243,0.2271,0.2196,0.2162,0.204,0.2068,0.2091,0.2003,0.183,0.1827,0.1824,0.1822,0,0,0.1759,0.1761,0.1766,0.1756,0.1778,0.1751,0.1753,0.1766,0.185,0.1885,0.1941,0.2146,0.2274,0.2018,0.2013,0.1914,0.1958,0.1845,0.242,0.2308,0.2326,0.2382,0.2286,0,0,0,0,0]},{"header":{"parameterUnit":"m.s-1","parameterCategory":2,"la1":30.2991,"la2":30.254,"lo1":-89.0895,"lo2":-89.0444,"dy":0.0017,"dx":0.0017,"nx":28,"ny":28,"refTime":"2024-02-20T03:00:00:Z","depth":"2","parameterNumber":3,"parameterNumberName":"V-component_of_CURRENTS"},"data":[0,0,0,0,0,0,0,0,0,0,0,0,0,0,0,0,0,0,0,0,0,0,0,0,0,0,0,0,0,0,0,0,0,0,0,0,0,0,0,0,0,0,0,0,0,0,0,0,0,0,0,0,0,0,0,0,0,0,-0.0023,-0.0023,0,-0.0076,-0.0077,-0.0078,-0.0121,-0.0121,-0.0122,-0.0122,-0.0217,-0.0219,-0.0222,0,0,0,0,0,0,0,0,0,0,0,0,0,0.001,0.001,-0.0023,-0.0023,-0.0024,-0.0076,-0.0077,-0.0078,-0.0121,-0.0121,-0.0122,-0.0122,-0.0217,-0.0219,-0.0222,0,0,0,0,0,0,0,0,0,0,0,0,0,-0.002,0.0009,-0.0023,-0.0052,-0.0055,-0.0076,-0.0077,-0.0078,-0.0121,-0.0121,-0.0122,-0.0123,-0.0216,-0.0219,-0.0222,-0.0229,0,0,-0.0232,-0.0233,0,0,0,0,0,0,0,0,-0.0018,-0.0021,-0.0047,-0.005,-0.0053,-0.0093,-0.0101,-0.013,-0.012,-0.0096,-0.0122,-0.0123,-0.0179,-0.0185,-0.0193,-0.0233,-0.0237,-0.0232,-0.0234,-0.0235,-0.0236,0,0,0,0,0,0,0,-0.0016,-0.0019,-0.0044,-0.0047,-0.0051,-0.0073,-0.0078,-0.0106,-0.0134,-0.0098,-0.0101,-0.0107,-0.0181,-0.019,-0.0196,-0.0239,-0.0232,-0.0235,-0.0237,-0.0238,-0.0302,-0.0302,0,0,0,0,0,0,-0.0007,-0.0017,-0.0042,-0.0046,-0.0037,-0.0073,-0.0079,-0.0079,-0.0133,-0.0141,-0.0106,-0.0109,-0.0184,-0.0192,-0.02,-0.0211,-0.0235,-0.0238,-0.024,-0.0302,-0.0302,-0.0302,0,0,0,0,0,0,-0.0006,-0.0008,-0.004,-0.0033,-0.0039,-0.0073,-0.0074,-0.008,-0.0091,-0.0139,-0.0148,-0.0111,-0.0185,-0.0195,-0.0225,-0.0215,-0.024,-0.0243,-0.0302,-0.0302,-0.0302,-0.0234,0,0,0,0,0,0,-0.0005,-0.0008,-0.0006,-0.0032,-0.0039,-0.0047,-0.0073,-0.0081,-0.0093,-0.0097,-0.0146,-0.0155,-0.0186,-0.022,-0.0228,-0.022,-0.0245,-0.0303,-0.0302,-0.0302,-0.0237,-0.0232,-0.0227,0,0,0,0,0,-0.0003,0.0007,-0.0005,-0.0008,-0.0034,-0.0046,-0.0051,-0.0079,-0.0093,-0.0092,-0.0128,-0.0154,-0.0223,-0.0222,-0.0232,-0.0225,-0.0303,-0.0302,-0.0302,-0.0239,-0.0233,-0.0227,0,0,0,0,0,0,0.0023,0.0003,-0.0011,-0.0007,-0.0024,-0.0053,-0.0054,-0.0074,-0.01,-0.0105,-0.0152,-0.0164,-0.0185,-0.0215,-0.0213,-0.0242,-0.0267,-0.0268,-0.0215,-0.021,-0.0205,-0.0186,-0.0248,0,0,0,0,0,0.0031,0.0032,0.0008,0.001,0.0005,-0.0024,-0.0033,-0.005,-0.0077,-0.0089,-0.0125,-0.0162,-0.0189,-0.0208,-0.0237,-0.0254,-0.0283,-0.0256,-0.0252,-0.0247,-0.0239,-0.0278,-0.0276,-0.03,-0.03,-0.03,0,0,0.0041,0.003,0.003,0.0016,0.0001,0.0004,-0.0031,-0.0037,-0.0037,-0.0096,-0.0108,-0.0146,-0.019,-0.0208,-0.022,-0.0233,-0.0254,-0.0247,-0.0242,-0.0236,-0.0277,-0.0275,-0.0273,-0.03,-0.03,-0.03,0,0,0.0069,0.0055,0.0067,0.0059,0.0042,0.0026,0.0027,-0.0001,-0.0015,-0.0032,-0.0073,-0.0107,-0.0148,-0.018,-0.02,-0.0188,-0.0227,-0.0196,-0.0158,-0.0196,-0.0194,-0.0193,-0.0219,-0.022,-0.0195,-0.0195,-0.0195,0,0.0081,0.0094,0.0069,0.008,0.0081,0.0041,0.0058,0.004,0.0005,-0.0003,-0.0026,-0.009,-0.0133,-0.0155,-0.0153,-0.0177,-0.0199,-0.0174,-0.0189,-0.0188,-0.0188,-0.0215,-0.0218,-0.0191,-0.0192,-0.0192,-0.0193,0,0.0118,0.0128,0.0137,0.0139,0.0136,0.0144,0.012,0.0109,0.0085,0.0063,0.0035,-0.0026,-0.0063,-0.0084,-0.0116,-0.0133,-0.0148,-0.0176,-0.0199,-0.0181,-0.0211,-0.0215,-0.0187,-0.0188,-0.0189,-0.019,0,0,0.0147,0.0162,0.0164,0.0182,0.0171,0.0177,0.0178,0.017,0.0176,0.0127,0.0128,0.0064,0.0027,0.0001,-0.0048,-0.0086,-0.0111,-0.0124,-0.0127,-0.0141,-0.0182,-0.0192,-0.0198,-0.0139,-0.0139,-0.014,-0.02,0,0.0184,0.0227,0.022,0.0261,0.0284,0.0256,0.0261,0.0246,0.0226,0.0213,0.0144,0.0125,0.0062,0.0046,-0.0002,-0.0083,-0.0119,-0.0091,-0.0204,-0.0207,-0.0212,-0.0202,-0.0174,-0.0226,-0.0204,-0.0205,-0.0206,0,0.0222,0.0249,0.0298,0.0331,0.0338,0.035,0.0362,0.0363,0.0329,0.0316,0.0278,0.0225,0.0162,0.0106,-0.0018,0.0005,-0.0078,-0.0145,-0.0149,-0.0184,-0.0225,-0.0244,-0.0234,-0.0213,-0.0212,-0.0212,-0.0211,0,0.0261,0.0305,0.0351,0.0361,0.0384,0.0399,0.0405,0.039,0.0413,0.0382,0.0393,0.0304,0.0267,0.0151,0.0007,-0.0003,-0.0128,-0.0165,-0.0251,-0.0252,-0.0264,-0.0265,-0.0248,-0.0248,-0.0248,-0.0248,-0.0248,0,0.0305,0.0342,0.0374,0.04,0.0456,0.0449,0.0499,0.049,0.0499,0.0536,0.0449,0.0457,0.0277,0.0182,0.0042,-0.011,-0.0105,-0.0237,-0.0268,-0.0239,-0.0237,-0.0257,-0.0258,-0.025,-0.025,-0.0249,-0.0249,0,0.0342,0.0358,0.0419,0.0459,0.0476,0.0514,0.0574,0.0613,0.0607,0.0653,0.065,0.0573,0.0448,0.0267,0.0076,-0.0054,-0.0207,-0.0262,-0.0208,-0.0232,-0.0313,-0.031,-0.0362,-0.0363,-0.0363,-0.0364,-0.0364,0,0.0364,0.0397,0.0467,0.051,0.0533,0.0593,0.0636,0.0661,0.0721,0.073,0.0764,0.066,0.0606,0.0326,0.0071,-0.0168,-0.0202,-0.0293,-0.0319,-0.0299,-0.0325,-0.032,-0.0315,-0.0307,-0.0307,-0.0307,-0.0307,0,0.0412,0.0432,0.0486,0.0574,0.0635,0.0719,0.079,0.0856,0.0887,0.0927,0.0954,0.0908,0.0638,0.0393,0.0062,-0.0096,-0.0256,-0.0301,-0.0299,-0.0279,-0.0252,-0.0276,-0.0272,-0.0307,-0.0307,-0.0307,-0.0307,-0.0307,0.0446,0.0492,0.056,0.0647,0.0728,0.0836,0.0914,0.0995,0.1091,0.1155,0.1102,0.1052,0.0752,0.0342,0.004,-0.0264,-0.0255,-0.0353,-0.0351,-0.035,-0.0329,-0.0305,-0.0365,-0.0365,-0.0366,-0.0366,-0.0366,0,0.0493,0.0546,0.0629,0.0739,0.0842,0.0877,0.1015,0.1095,0.1209,0.1263,0.1281,0.1029,0.074,0.0409,-0.0051,-0.0331,-0.0349,-0.0403,-0.0372,-0.037,-0.0368,-0.0348,-0.0389,-0.039,-0.0391,-0.0392,0,0,0.0519,0.0603,0.0646,0.0816,0.0903,0.1047,0.1132,0.1238,0.1317,0.1375,0.1361,0.1284,0.0867,0.0535,0.0139,-0.0126,-0.0174,-0.0167,-0.0116,-0.003,-0.0025,-0.0307,-0.0268,0,0,0,0,0]}],[{"header":{"parameterUnit":"m.s-1","parameterCategory":2,"la1":30.2991,"la2":30.254,"lo1":-89.0895,"lo2":-89.0444,"dy":0.0017,"dx":0.0017,"nx":28,"ny":28,"refTime":"2024-02-20T03:00:00:Z","depth":"4","parameterNumber":2,"parameterNumberName":"U-component_of_CURRENTS"},"data":[0,0,0,0,0,0,0,0,0,0,0,0,0,0,0,0,0,0,0,0,0,0,0,0,0,0,0,0,0,0,0,0,0,0,0,0,0,0,0,0,0,0,0,0,0,0,0,0,0,0,0,0,0,0,0,0,0,0,0.129,0.1291,0,0.1353,0.1354,0.1354,0.1406,0.1407,0.1407,0.1408,0.1476,0.1477,0.1478,0,0,0,0,0,0,0,0,0,0,0,0,0,0.1202,0.1203,0.129,0.1291,0.1292,0.1353,0.1354,0.1354,0.1406,0.1407,0.1408,0.1408,0.1475,0.1477,0.1478,0,0,0,0,0,0,0,0,0,0,0,0,0,0.1248,0.1203,0.129,0.1327,0.1331,0.1353,0.1354,0.1355,0.1406,0.1407,0.1408,0.1409,0.1475,0.1476,0.1478,0.1466,0,0,0.1483,0.1484,0,0,0,0,0,0,0,0,0.1245,0.1251,0.132,0.1324,0.1329,0.1375,0.1348,0.1393,0.1405,0.1375,0.1408,0.1409,0.1443,0.1447,0.1453,0.1469,0.1472,0.1483,0.1484,0.1485,0.1485,0,0,0,0,0,0,0,0.1242,0.1248,0.1313,0.1321,0.1327,0.1336,0.1343,0.1356,0.14,0.1378,0.1382,0.1392,0.1445,0.1452,0.1456,0.1473,0.1483,0.1485,0.1486,0.1486,0.1575,0.1576,0,0,0,0,0,0,0.1238,0.1245,0.1311,0.1315,0.1291,0.1337,0.1345,0.1357,0.14,0.1409,0.1391,0.1394,0.1448,0.1454,0.1458,0.1534,0.1485,0.1487,0.1488,0.1573,0.1575,0.1576,0,0,0,0,0,0,0.1236,0.1243,0.1309,0.1283,0.1292,0.1337,0.135,0.1358,0.1395,0.1411,0.1419,0.1425,0.1449,0.1456,0.1499,0.1534,0.1487,0.1489,0.1572,0.1574,0.1576,0.1631,0,0,0,0,0,0,0.1233,0.1242,0.1262,0.1283,0.1294,0.1342,0.135,0.1358,0.1399,0.1405,0.1442,0.1447,0.1451,0.1497,0.1501,0.1536,0.149,0.157,0.1573,0.1575,0.1627,0.1634,0.1641,0,0,0,0,0,0.123,0.1248,0.1262,0.1271,0.1315,0.1343,0.135,0.1383,0.14,0.142,0.1449,0.1448,0.1516,0.1499,0.1503,0.154,0.1569,0.1572,0.1575,0.1624,0.1633,0.164,0,0,0,0,0,0,0.1221,0.1256,0.1272,0.1301,0.1331,0.1354,0.138,0.1398,0.1436,0.1451,0.1462,0.147,0.1522,0.1521,0.1502,0.1572,0.1543,0.1547,0.1579,0.1587,0.1594,0.1594,0.1492,0,0,0,0,0,0.1227,0.1252,0.1283,0.131,0.1327,0.1358,0.1379,0.1402,0.1431,0.1451,0.1476,0.1504,0.1531,0.1552,0.1572,0.1608,0.1612,0.1635,0.1641,0.1647,0.165,0.1686,0.1696,0.1586,0.1586,0.1586,0,0,0.123,0.1255,0.127,0.1311,0.1337,0.1365,0.1374,0.1415,0.1446,0.145,0.1508,0.153,0.1546,0.1591,0.1614,0.1599,0.1683,0.1651,0.1656,0.1656,0.169,0.1701,0.171,0.1588,0.1588,0.1588,0,0,0.124,0.1275,0.1296,0.1324,0.137,0.139,0.1408,0.1449,0.148,0.1527,0.1543,0.1585,0.1625,0.1646,0.1659,0.1712,0.1716,0.1726,0.1763,0.1798,0.1807,0.1816,0.1843,0.1853,0.1731,0.1731,0.1731,0,0.1245,0.1276,0.1307,0.1335,0.1363,0.1404,0.1433,0.1466,0.1518,0.1547,0.1555,0.1632,0.1648,0.1701,0.1726,0.1727,0.1748,0.1732,0.1807,0.1815,0.1823,0.1849,0.1859,0.1734,0.1734,0.1733,0.1733,0,0.1262,0.1298,0.1316,0.1364,0.1398,0.1433,0.1478,0.1524,0.1566,0.1597,0.1669,0.1695,0.1742,0.1757,0.1761,0.1827,0.1826,0.181,0.1786,0.1837,0.1861,0.1871,0.1738,0.1737,0.1736,0.1736,0,0,0.1243,0.1313,0.1322,0.1352,0.142,0.1445,0.1507,0.1568,0.1615,0.1671,0.1734,0.1784,0.1811,0.1828,0.1845,0.1877,0.195,0.1876,0.1876,0.1902,0.2036,0.1926,0.1926,0.1957,0.1959,0.196,0.2035,0,0.125,0.1298,0.1337,0.1394,0.1424,0.1485,0.1536,0.16,0.1658,0.173,0.1777,0.1841,0.1835,0.1875,0.1908,0.1945,0.1978,0.1931,0.1984,0.1985,0.188,0.1934,0.1966,0.2042,0.2044,0.2046,0.2047,0,0.125,0.1286,0.1336,0.1414,0.1435,0.1479,0.1575,0.1626,0.1727,0.1779,0.1851,0.1895,0.1972,0.1953,0.2036,0.2013,0.2033,0.2047,0.205,0.1933,0.1893,0.1979,0.2065,0.2063,0.2062,0.2061,0.206,0,0.1209,0.1285,0.1326,0.1353,0.1444,0.149,0.1548,0.1645,0.1708,0.1822,0.1888,0.1965,0.2032,0.2067,0.211,0.2089,0.219,0.2156,0.2071,0.2064,0.2115,0.2106,0.2207,0.2207,0.2207,0.2206,0.2206,0,0.1189,0.1226,0.1316,0.1338,0.1401,0.1476,0.1557,0.1628,0.1748,0.1821,0.1916,0.1983,0.2069,0.2137,0.2146,0.2145,0.2221,0.2087,0.2078,0.2138,0.213,0.2123,0.2112,0.2209,0.2209,0.2208,0.2207,0,0.113,0.1192,0.1241,0.1342,0.1382,0.1426,0.1563,0.1619,0.1743,0.1848,0.1898,0.2035,0.2114,0.2179,0.2247,0.2187,0.2194,0.2173,0.225,0.2243,0.2035,0.2026,0.2075,0.2072,0.2069,0.2067,0.2065,0,0.1101,0.1119,0.1225,0.1261,0.1312,0.1399,0.1459,0.16,0.1667,0.1855,0.1898,0.2038,0.2106,0.2117,0.2184,0.22,0.2172,0.2159,0.2073,0.2036,0.2023,0.2019,0.2014,0.2061,0.206,0.2059,0.2059,0,0.1034,0.1078,0.1116,0.1191,0.1261,0.1332,0.1436,0.1484,0.1642,0.1776,0.1858,0.1911,0.2001,0.2044,0.2085,0.2084,0.2154,0.213,0.2134,0.2053,0.2019,0.2008,0.2007,0.2049,0.2051,0.2052,0.2052,0,0.0981,0.0988,0.1045,0.1104,0.1185,0.1241,0.1311,0.14,0.149,0.17,0.1718,0.1857,0.1978,0.1986,0.2018,0.2021,0.1978,0.1897,0.1913,0.1924,0.1839,0.1772,0.1728,0,0,0,0,0,0.092,0.0922,0.0961,0.102,0.1095,0.1153,0.1282,0.136,0.152,0.1537,0.1629,0.17,0.1763,0.1835,0.1807,0.1948,0.1983,0.1907,0.1896,0.1997,0.2008,0.1922,0,0,0,0,0,0,0.0878,0.0904,0.0921,0.0935,0.0967,0.1048,0.1129,0.1243,0.1266,0.1429,0.1474,0.1593,0.168,0.1758,0.1771,0.1793,0.1751,0.1997,0.1993,0.1991,0.2001,0.2009,0.1925,0,0,0,0,0]},{"header":{"parameterUnit":"m.s-1","parameterCategory":2,"la1":30.2991,"la2":30.254,"lo1":-89.0895,"lo2":-89.0444,"dy":0.0017,"dx":0.0017,"nx":28,"ny":28,"refTime":"2024-02-20T03:00:00:Z","depth":"4","parameterNumber":3,"parameterNumberName":"V-component_of_CURRENTS"},"data":[0,0,0,0,0,0,0,0,0,0,0,0,0,0,0,0,0,0,0,0,0,0,0,0,0,0,0,0,0,0,0,0,0,0,0,0,0,0,0,0,0,0,0,0,0,0,0,0,0,0,0,0,0,0,0,0,0,0,0.0005,0.0004,0,-0.0034,-0.0034,-0.0035,-0.0065,-0.0066,-0.0066,-0.0066,-0.0141,-0.0142,-0.0144,0,0,0,0,0,0,0,0,0,0,0,0,0,0.0027,0.0027,0.0005,0.0004,0.0004,-0.0034,-0.0034,-0.0035,-0.0065,-0.0066,-0.0066,-0.0066,-0.014,-0.0142,-0.0144,0,0,0,0,0,0,0,0,0,0,0,0,0,0.0006,0.0027,0.0005,-0.0016,-0.0018,-0.0034,-0.0034,-0.0035,-0.0065,-0.0066,-0.0066,-0.0067,-0.0139,-0.0142,-0.0144,-0.0151,0,0,-0.0152,-0.0153,0,0,0,0,0,0,0,0,0.0008,0.0005,-0.0012,-0.0014,-0.0017,-0.0045,-0.0054,-0.0076,-0.0065,-0.0047,-0.0066,-0.0067,-0.0112,-0.0117,-0.0122,-0.0154,-0.0158,-0.0152,-0.0154,-0.0155,-0.0156,0,0,0,0,0,0,0,0.0009,0.0007,-0.001,-0.0013,-0.0016,-0.0032,-0.0035,-0.0058,-0.0077,-0.0049,-0.0051,-0.0055,-0.0113,-0.012,-0.0124,-0.0159,-0.0152,-0.0155,-0.0156,-0.0157,-0.0212,-0.0212,0,0,0,0,0,0,0.0016,0.0008,-0.0009,-0.0012,-0.0006,-0.0032,-0.0036,-0.0036,-0.0076,-0.0082,-0.0055,-0.0057,-0.0115,-0.0121,-0.0127,-0.0138,-0.0155,-0.0157,-0.0159,-0.0212,-0.0212,-0.0212,0,0,0,0,0,0,0.0016,0.0015,-0.0008,-0.0003,-0.0007,-0.0032,-0.0032,-0.0036,-0.0045,-0.008,-0.0088,-0.0059,-0.0116,-0.0124,-0.0148,-0.0141,-0.0159,-0.0161,-0.0212,-0.0212,-0.0212,-0.016,0,0,0,0,0,0,0.0017,0.0015,0.0016,-0.0002,-0.0007,-0.0013,-0.0031,-0.0037,-0.0047,-0.005,-0.0086,-0.0094,-0.0117,-0.0143,-0.015,-0.0145,-0.0163,-0.0212,-0.0212,-0.0212,-0.0161,-0.0158,-0.0155,0,0,0,0,0,0.0018,0.0025,0.0017,0.0014,-0.0004,-0.0013,-0.0016,-0.0036,-0.0046,-0.0046,-0.0073,-0.0093,-0.0147,-0.0145,-0.0153,-0.0149,-0.0213,-0.0212,-0.0212,-0.0163,-0.0158,-0.0155,0,0,0,0,0,0,0.0035,0.0022,0.0013,0.0014,0.0003,-0.0018,-0.0019,-0.0033,-0.0053,-0.0058,-0.0092,-0.0101,-0.0119,-0.0143,-0.014,-0.0165,-0.0183,-0.0184,-0.0143,-0.0139,-0.0136,-0.0122,-0.0165,0,0,0,0,0,0.004,0.0041,0.0025,0.0026,0.0022,0.0002,-0.0005,-0.0017,-0.0037,-0.0046,-0.0073,-0.0102,-0.0124,-0.0138,-0.0162,-0.0176,-0.0201,-0.0179,-0.0175,-0.0172,-0.0167,-0.0203,-0.0202,-0.0212,-0.0212,-0.0212,0,0,0.0046,0.0039,0.0039,0.003,0.0019,0.0022,-0.0003,-0.0009,-0.0007,-0.0052,-0.0061,-0.0091,-0.0125,-0.014,-0.015,-0.0159,-0.0183,-0.0172,-0.0169,-0.0165,-0.0203,-0.0202,-0.0201,-0.0212,-0.0212,-0.0212,0,0,0.0065,0.0055,0.0064,0.0059,0.0047,0.0037,0.0037,0.0017,0.0007,-0.0006,-0.0037,-0.0064,-0.0097,-0.0121,-0.0136,-0.013,-0.0163,-0.0137,-0.0108,-0.0143,-0.0143,-0.0143,-0.0169,-0.0172,-0.0135,-0.0135,-0.0135,0,0.0071,0.0083,0.0065,0.0074,0.0076,0.0047,0.0061,0.0047,0.0021,0.0016,-0.0002,-0.0053,-0.0087,-0.0104,-0.0103,-0.0122,-0.0143,-0.0119,-0.0138,-0.0138,-0.0139,-0.0167,-0.017,-0.0133,-0.0133,-0.0133,-0.0134,0,0.0097,0.0107,0.0113,0.0117,0.0116,0.0122,0.0106,0.0098,0.0081,0.0064,0.0041,-0.0006,-0.0036,-0.0052,-0.0076,-0.0094,-0.0108,-0.0128,-0.0145,-0.0135,-0.0165,-0.0169,-0.0129,-0.013,-0.0131,-0.0131,0,0,0.0112,0.0129,0.0131,0.0147,0.0142,0.0148,0.0149,0.0145,0.0149,0.0111,0.011,0.0061,0.0031,0.0011,-0.0027,-0.006,-0.0088,-0.0091,-0.0094,-0.0111,-0.0158,-0.0157,-0.0163,-0.011,-0.0111,-0.0111,-0.0175,0,0.0138,0.0173,0.0171,0.0205,0.0224,0.0207,0.0213,0.0203,0.0186,0.0175,0.0121,0.0104,0.0057,0.0044,0.0003,-0.0065,-0.0098,-0.0068,-0.0171,-0.0174,-0.017,-0.0167,-0.0113,-0.0179,-0.018,-0.0181,-0.0182,0,0.0163,0.0187,0.0227,0.0259,0.0265,0.0279,0.0291,0.0292,0.0265,0.0252,0.0219,0.0178,0.0125,0.0084,-0.0025,-0.0003,-0.0072,-0.0129,-0.0133,-0.0153,-0.0182,-0.0195,-0.019,-0.019,-0.0189,-0.0188,-0.0188,0,0.0187,0.0226,0.0264,0.0274,0.03,0.0316,0.0324,0.0314,0.0329,0.03,0.0306,0.0232,0.0199,0.0102,-0.0017,-0.002,-0.0139,-0.0161,-0.0225,-0.0226,-0.0231,-0.023,-0.0235,-0.0235,-0.0235,-0.0235,-0.0235,0,0.0215,0.0247,0.0282,0.0303,0.0352,0.0352,0.0393,0.0387,0.0391,0.0414,0.0348,0.0343,0.0201,0.0117,0.0004,-0.0122,-0.0126,-0.0217,-0.0242,-0.0207,-0.0203,-0.0234,-0.0233,-0.0237,-0.0237,-0.0236,-0.0236,0,0.0234,0.0255,0.0305,0.0347,0.0365,0.0397,0.045,0.0476,0.0472,0.0498,0.0495,0.0424,0.0311,0.0168,0.0005,-0.0087,-0.0212,-0.0257,-0.0199,-0.0221,-0.0281,-0.0276,-0.0329,-0.033,-0.033,-0.0331,-0.0331,0,0.0246,0.0273,0.0338,0.0375,0.0398,0.045,0.0487,0.0511,0.0548,0.0548,0.0564,0.0472,0.0403,0.0185,0.0021,-0.0189,-0.0223,-0.0285,-0.0292,-0.0271,-0.0291,-0.0285,-0.0281,-0.0332,-0.0332,-0.0332,-0.0332,0,0.0269,0.029,0.0333,0.0406,0.046,0.0529,0.0586,0.0624,0.0648,0.065,0.0628,0.0514,0.0384,0.0198,0.0032,-0.0121,-0.0244,-0.0291,-0.0291,-0.0298,-0.0274,-0.0292,-0.0287,-0.0333,-0.0333,-0.0333,-0.0333,0,0.0281,0.0313,0.0366,0.0434,0.0508,0.0584,0.0616,0.0661,0.0696,0.0699,0.0686,0.0544,0.0458,0.0233,0.0081,-0.007,-0.0113,-0.0163,-0.017,-0.0171,-0.0113,-0.0059,-0.0069,0,0,0,0,0,0.0291,0.0327,0.0389,0.0468,0.0545,0.0593,0.0672,0.07,0.0729,0.0725,0.0712,0.0593,0.0369,0.0271,0.0121,0.0056,-0.0151,-0.0127,-0.0214,-0.0342,-0.034,-0.0299,0,0,0,0,0,0,0.0296,0.0351,0.0386,0.0486,0.0546,0.0637,0.0693,0.0715,0.0719,0.072,0.0607,0.0552,0.0335,0.0453,0.0116,0.0069,-0.0008,-0.0231,-0.0235,-0.0342,-0.0341,-0.034,-0.0297,0,0,0,0,0]}]]